Location: Astronomy Adventures Observing Site
(35.3995°N, 106.1279°W)
Time: 19:38:23
(UTC-06:00)

Envisat - Pass Details

Date: 31 January 2022
Orbit: 764 x 765 km, 98.2° (Epoch: 27 May)

Event Time Altitude Azimuth Distance (km) Brightness Sun altitude
Rises 05:55:57 0° 356° (N) 3,235 6.1 -14.3°
Reaches altitude 10° 05:58:41 10° 342° (NNW) 2,305 5.2 -13.7°
Maximum altitude 06:02:32 22° 293° (WNW) 1,615 4.1 -13.0°
Drops below altitude 10° 06:06:22 10° 243° (WSW) 2,296 5.0 -12.2°
Sets 06:09:07 0° 228° (SW) 3,218 5.9 -11.7°
